Location: 81360 Arifat, France
(43.7204°N, 2.3408°E)
Time: 03:13:15
(UTC+01:00)

Tiros 1 despin weight - Visible Passes

Search period start: 05 December 2025 00:00
Search period end: 15 December 2025 00:00
Orbit: 559 x 596 km, 48.2° (Epoch: 04 December)

Date Brightness Start Highest point End Pass type
(mag) Time Alt. Az. Time Alt. Az. Time Alt. Az.
06 Dec ? 19:07:45 10° SSE 19:08:16 11° SSE 19:08:16 11° SSE visible
07 Dec ? 19:09:25 10° S 19:11:45 19° SSE 19:11:45 19° SSE visible
08 Dec ? 19:11:47 10° SSW 19:15:08 28° SSE 19:15:08 28° SSE visible
09 Dec ? 19:14:28 10° SW 19:18:26 43° SSE 19:18:26 43° SSE visible
10 Dec ? 19:17:22 10° SW 19:21:36 62° SSE 19:21:40 62° SE visible
11 Dec ? 17:41:16 10° S 17:44:31 21° SE 17:47:45 10° E visible
11 Dec ? 19:20:26 10° WSW 19:24:44 86° SSE 19:24:50 84° ESE visible
12 Dec ? 17:43:38 10° SSW 17:47:28 31° SE 17:51:16 10° E visible
12 Dec ? 19:23:36 10° WSW 19:27:53 73° NNW 19:27:56 73° NNW visible
13 Dec ? 17:46:19 10° SW 17:50:28 46° SSE 17:54:34 10° ENE visible
13 Dec ? 19:26:49 10° W 19:30:59 58° NNW 19:30:59 58° NNW visible
14 Dec ? 17:49:12 10° SW 17:53:30 67° SSE 17:57:45 10° ENE visible
14 Dec ? 19:30:05 10° W 19:33:59 49° NNW 19:33:59 49° NNW visible
